User: anonymous   Login
Location: Brede
(50.9167°N, 0.6000°E)
Time: 09:45:43
(UTC+00:00)
Language:

Cosmos 1766 - Orbit

View from above orbital plane
View from above orbital plane
View from above satellite
View from above satellite

Ground track
Ground track

The orbit data is extracted from the following two-line orbital elements,

1 16881U 86055A   20293.66310989 +.00000306 +00000-0 +16408-4 0  9998
2 16881 082.5053 268.7509 0015622 216.8401 143.1757 15.11123788865693
Epoch (UTC): 19 October 2020 15:54:52
Eccentricity: 0.0015622
inclination: 82.5053°
perigee height: 522 km
apogee height: 543 km
right ascension of ascending node: 268.7509°
argument of perigee: 216.8401°
revolutions per day: 15.11123788
mean anomaly at epoch: 143.1757°
orbit number at epoch: 86569

The dashed part of the orbit path shows where the satellite is in the earth's shadow,  

DLR